Home > Weather > Alsfeld > Past weeks

Flag for Germany Past Weather in Alsfeld, Hesse, Germany — Yesterday and Last 2 Weeks

Now
72 °F

Scattered clouds.


Feels Like: 76 °F
Forecast: 52 / 70 °F
Wind: 8 mph from Southwest

Location: Fritzlar

Current Time: Jul 30, 2016 at 1:21:04 PM

Latest Report: Jul 30, 2016 at 12:00 PM


Visibility: 17 mi

Pressure: 29.90 "Hg

Humidity: 60%

Dew Point: 57 °F

Location of AlsfeldLocation

Past Weather in Alsfeld — Graph

°F

Alsfeld Temperature Yesterday

Maximum temperature yesterday: 71 °F (at 4:00 PM)
Minimum temperature yesterday: 58 °F (at 6:00 AM)
Average temperature yesterday: 65 °F

High & Low Weather Summary for the Past Weeks

 TemperatureHumidityPressure
High90 °F (Jul 20, 6:00 PM)98% (Jul 18, 3:00 AM)30.31 "Hg (Jul 18, 3:00 AM)
Low47 °F (Jul 16, 3:00 AM)26% (Jul 20, 6:00 PM)29.88 "Hg (Jul 29, 6:00 PM)
Average68 °F75%30.07 "Hg
* Reported Jul 15 12:00 PM — Jul 30 12:00 PM, Alsfeld, Weather by CustomWeather, © 2016

Note: Actual official high and low records may vary slightly from our data, if they occured in-between our weather recording intervals... More about our weather records

Advertising

Alsfeld Weather History for the Previous 24 Hours

Scroll right to see more
 ConditionsComfort  
Time TempWeatherWind HumidityBarometerVisibility
12:00 PM
Sat, Jul 30
72 °FScattered clouds.8 mph60%29.90 "Hg17 mi
10:00 AM66 °FLight rain. Overcast.3 mph87%29.91 "Hg11 mi
9:00 AM64 °FLow clouds.N/A90%29.92 "Hg8 mi
7:00 AM61 °FFog.No wind96%29.92 "Hg4 mi
6:00 AM61 °FSprinkles. Low clouds.No wind96%29.92 "Hg4 mi
4:00 AM60 °FOvercast.1 mph96%29.92 "Hg9 mi
3:00 AM60 °FOvercast.1 mph96%29.92 "Hg9 mi
1:00 AM61 °FOvercast.N/A92%29.93 "Hg12 mi
12:00 AM61 °FPassing clouds.N/A94%29.93 "Hg12 mi
10:00 PM
Fri, Jul 29
62 °FPassing clouds.3 mph91%29.91 "Hg16 mi
9:00 PM65 °FPartly sunny.2 mph89%29.90 "Hg19 mi
7:00 PM67 °FOvercast.3 mph86%29.88 "Hg12 mi
6:00 PM70 °FRain showers. Overcast.2 mph78%29.88 "Hg5 mi
4:00 PM71 °FPartly sunny.3 mph68%29.90 "Hg19 mi
3:00 PM68 °FOvercast.3 mph80%29.91 "Hg17 mi
1:00 PM69 °FLight rain. Overcast.6 mph71%29.92 "Hg16 mi
Weather by CustomWeather, © 2016

See weather overviewHow to use our weather pages